Retour au catalogue

TOMORROW-S8

ActifMétéoVLEO
NORAD 66308·PAYLOAD·🇺🇸 United States

Lancé Nov 2, 2025 depuis Cape Canaveral Space Force Station

Loading…

Prochains Passages (prochaines 24 heures)

TLE

FraisSource: Space-Track

Époque: Sep 14, 2026, 13:37 UTC

1 66308U 25248R   26257.56749312  .00004027  00000-0  18996-3 0  9992
2 66308  45.3996   1.6697 0004246 191.8318 168.2469 15.21172554 48121

Suivez TOMORROW-S8 en temps réel avec AllMySat

Download on the App Store